Location: Kuala Lumpur International
(3.1298°N, 101.5524°E)
Time: 03:50:27
(UTC+00:00)

CZ-4C R/B - Pass Details

Date: 05 August 2024
Orbit: 522 x 1469 km, 63.4° (Epoch: 10 September)

Event Time Altitude Azimuth Distance (km) Brightness Sun altitude
Rises 13:24:41 0° 348° (NNW) 4,341 6.3 -28.7°
Reaches altitude 10° 13:27:35 10° 354° (N) 3,454 5.6 -29.4°
Enters shadow 13:35:25 50° 55° (NE) 1,801 3.5 -31.2°
